2025-180A (65259 NORAD) Tracking and Keplerian Element Data

This shows tracking and keplerian element data for the satellite.

Feedback or suggestion? Click here.




ElementValue
Catalog65259
Name2025-180A
Epoch Orbit1805
Epoch Day350.59014374
Epoch Year2025
RAAN115.3103
Inclination97.4999
Eccentricity0.0013327
Argument of Perigee230.302
Mean Anonmoly129.7038
Mean Motion15.16444716
Decay Rate0.00011619
L11 65259U 25180A 25350.59014374 .00011619 00000+0 59902-3 0 9996
L22 65259 97.4999 115.3103 0013327 230.3020 129.7038 15.16444716 18059



Live tracking and technical data element details for 2025-180A (NORAD 65259). 2025-180A can be tracked NOW for your location showing map with azimuth and elevation plus other details from your city location.







IsCatalogInMostPopularTable: catalog: 65259, numindb: 5
Update: records affected: 1



GetName: 65259 2025-180A

Hit Count: updated at: Mon, 20 Apr 2026 10:20:43 GMT